Location: *
(45.5667°S, 177.5167°W)
Time: 17:20:57
(UTC+00:00)

FengYun 1-2 T - Pass Details

Date: 29 May 2022
Orbit: 847 x 880 km, 98.7° (Epoch: 06 July)

Event Time Altitude Azimuth Distance (km) Brightness Sun altitude
Rises 06:02:34 0° 167° (SSE) 3,474 7.1 -17.8°
Reaches altitude 10° 06:04:58 10° 168° (SSE) 2,526 6.4 -18.2°
Maximum altitude 06:10:35 80° 254° (WSW) 880 4.3 -19.2°
Drops below altitude 10° 06:16:06 10° 339° (NNW) 2,480 7.0 -20.1°
Sets 06:18:27 0° 340° (NNW) 3,406 7.8 -20.5°
